Location: Big Meadows
(38.5260°N, 78.4400°W)
Time: 18:07:10
(UTC-04:00)

H-2A R/B - Visible Passes

Search period start: 28 May 2016 00:00
Search period end: 07 June 2016 00:00
Orbit: 734 x 837 km, 98.4° (Epoch: 27 May)

Date Brightness Start Highest point End Pass type
(mag) Time Alt. Az. Time Alt. Az. Time Alt. Az.
28 May 4.2 00:38:18 13° W 00:38:23 13° W 00:40:45 10° WNW visible
28 May 3.0 22:26:31 26° E 22:28:00 31° ENE 22:32:24 10° N visible
29 May 3.4 00:07:09 27° W 00:07:22 27° W 00:11:38 10° NW visible
29 May 3.8 21:55:22 13° E 21:57:36 17° ENE 22:00:41 10° NNE visible
29 May 2.2 23:36:00 53° SW 23:36:30 55° W 23:41:28 10° NNW visible
30 May 1.9 23:04:51 57° SE 23:05:46 73° ENE 23:10:51 10° N visible
31 May 4.4 00:45:29 11° W 00:45:45 11° W 00:47:07 10° WNW visible
31 May 2.8 22:33:42 30° ESE 22:35:11 37° ENE 22:39:50 10° N visible
01 Jun 3.6 00:14:20 23° W 00:14:41 23° W 00:18:42 10° NW visible
01 Jun 3.7 22:02:34 15° E 22:04:46 19° ENE 22:08:20 10° NNE visible
01 Jun 2.5 23:43:11 44° WSW 23:43:47 46° W 23:48:41 10° NNW visible
02 Jun 1.9 23:12:03 59° SSE 23:13:01 86° ENE 23:18:10 10° NNW visible
03 Jun 2.6 22:40:54 34° ESE 22:42:24 43° ENE 22:47:15 10° N visible
04 Jun 3.8 00:21:32 20° W 00:22:01 20° W 00:25:42 10° NW visible
04 Jun 3.5 22:09:46 17° E 22:11:57 23° ENE 22:15:54 10° NNE visible
04 Jun 2.8 23:50:24 37° WSW 23:51:04 39° W 23:55:53 10° NNW visible
05 Jun 4.1 21:39:44 10° E 21:41:38 12° ENE 21:43:33 10° NE visible
05 Jun 1.9 23:19:16 58° S 23:20:17 80° WSW 23:25:28 10° NNW visible
06 Jun 2.3 22:48:07 38° ESE 22:49:38 51° ENE 22:54:39 10° N visible
